Weather History for Saginaw, MI

Change the Weather History Date:

Saturday, March 9, 2013

  Actual Average Record
Temperature  
Mean Temperature 32 °F 31 °F  
Max Temperature 42 °F 39 °F 54 °F (2002)
Min Temperature 23 °F 23 °F -2 °F (2003)
Degree Days  
Heating Degree Days 32    
Month to date heating degree days  
Since 1 July heating degree days  
Cooling Degree Days 0    
Month to date cooling degree days  
Year to date cooling degree days  
Moisture  
Dew Point 26 °F    
Average Humidity 73    
Maximum Humidity 91    
Minimum Humidity 55    
Precipitation  
Precipitation 0.00 in 0.07 in 0.98 in (1998)
Month to date precipitation 0.62  
Year to date precipitation 3.94  
Snow  
Snow 0.00 in - - ()
Month to date snowfall  
Since 1 July snowfall  
Snow Depth -    
Sea Level Pressure  
Sea Level Pressure 30.26 in    
Wind  
Wind Speed 6 mph (SSE)    
Max Wind Speed 12 mph    
Max Gust Speed -    
Visibility 9 miles    
Events Rain    
T = Trace of Precipitation, MM = Missing Value Source: NWS Daily Summary

Daily Weather History Graph

Daily Weather History Graph

Search for Another Location

Airport:

Trip Planner

Search our weather history database for the weather conditions in past years. The results will help you decide how hot, cold, wet, or windy it might be!

Date:

Astronomy

Mar. 09, 2013 Rise Set
Actual Time 6:58 AM EST 6:35 PM EST
Civil Twilight 6:30 AM EST 7:04 PM EST
Nautical Twilight 5:57 AM EST 7:37 PM EST
Astronomical Twilight 5:23 AM EST 8:10 PM EST
Moon 5:25 AM EST (3/9) 4:34 PM EST (3/9)
Length of Visible Light 12h 33m
Length of Day
11h 36m
Waning Crescent, 5% of the Moon is Illuminated
Mar 9
Waning Crescent
Mar 11
New
Mar 19
First Quarter
Mar 27
Full
Apr 3
Last Quarter

Hourly Weather History & Observations

Time (EST) Temp. Windchill Dew Point Humidity Pressure Visibility Wind Dir Wind Speed Gust Speed Precip Events Conditions
12:53 AM 26.1 °F 20.5 °F 21.0 °F 81% 30.42 in 10.0 mi SE 4.6 mph - N/A   Clear
1:53 AM 27.0 °F 21.6 °F 21.9 °F 81% 30.41 in 10.0 mi SSE 4.6 mph - N/A   Clear
2:53 AM 26.1 °F 19.4 °F 21.0 °F 81% 30.39 in 10.0 mi South 5.8 mph - N/A   Clear
3:53 AM 27.0 °F 23.0 °F 21.9 °F 81% 30.37 in 10.0 mi South 3.5 mph - N/A   Clear
4:53 AM 23.0 °F 18.4 °F 19.9 °F 88% 30.37 in 5.0 mi SSE 3.5 mph - N/A   Clear
5:53 AM 24.1 °F 18.2 °F 19.9 °F 84% 30.38 in 4.0 mi SSE 4.6 mph - N/A   Clear
6:53 AM 24.1 °F 17.0 °F 21.9 °F 91% 30.38 in 5.0 mi SSE 5.8 mph - N/A   Clear
7:53 AM 27.0 °F 21.6 °F 23.0 °F 85% 30.37 in 6.0 mi SE 4.6 mph - N/A   Clear
8:53 AM 30.9 °F 23.5 °F 24.1 °F 76% 30.37 in 10.0 mi SSE 8.1 mph - N/A   Clear
9:53 AM 34.0 °F 28.8 °F 24.1 °F 67% 30.37 in 10.0 mi South 5.8 mph - N/A   Clear
10:53 AM 36.0 °F 28.0 °F 25.0 °F 64% 30.34 in 10.0 mi South 11.5 mph - N/A   Clear
11:53 AM 37.9 °F 31.5 °F 26.1 °F 62% 30.32 in 10.0 mi South 9.2 mph - N/A   Clear
12:53 PM 39.9 °F 35.8 °F 26.1 °F 58% 30.30 in 10.0 mi SSE 5.8 mph - N/A   Clear
1:53 PM 42.1 °F 37.1 °F 27.0 °F 55% 30.24 in 10.0 mi South 8.1 mph - N/A   Clear
2:53 PM 42.1 °F 38.4 °F 28.0 °F 58% 30.20 in 10.0 mi South 5.8 mph - N/A   Scattered Clouds
3:53 PM 41.0 °F 37.1 °F 28.0 °F 60% 30.18 in 10.0 mi South 5.8 mph - N/A   Overcast
4:53 PM 39.9 °F 36.7 °F 30.0 °F 68% 30.16 in 10.0 mi SE 4.6 mph - 0.00 in Rain Light Rain
5:53 PM 39.9 °F 37.8 °F 30.0 °F 68% 30.14 in 10.0 mi ESE 3.5 mph - N/A   Overcast
6:53 PM 37.9 °F 32.1 °F 30.0 °F 73% 30.12 in 10.0 mi ESE 8.1 mph - N/A   Overcast
7:53 PM 37.0 °F 31.6 °F 30.0 °F 76% 30.11 in 10.0 mi ESE 6.9 mph - N/A   Partly Cloudy
8:53 PM 37.0 °F 31.0 °F 28.9 °F 73% 30.09 in 10.0 mi SE 8.1 mph - N/A   Mostly Cloudy
9:53 PM 37.0 °F 31.0 °F 28.9 °F 73% 30.07 in 10.0 mi SSE 8.1 mph - N/A   Overcast
10:53 PM 37.9 °F 32.7 °F 28.9 °F 70% 30.05 in 10.0 mi SSE 6.9 mph - 0.00 in Rain Light Rain
11:53 PM 37.0 °F - 30.9 °F 79% 30.05 in 10.0 mi Calm Calm - 0.00 in   Overcast